ARN901 CYGR-CYHZ

Flight info

Callsign ARN901
Flight time 0h 38m
Altitude 22000
Route DCT
Aircraft RJ1H/M-WX/S

Departure

Time 2026-05-06 22:33
Airport Îles-de-la-Madeleine Airport (CYGR)

Arrival

Time 2026-05-06 23:12
Airport Halifax / Stanfield International Airport (CYHZ)
Time Latitude Longitude Altitude Speed Heading
2026-05-06 22:27 47.42435 -61.77485 42 ft 0 kts 269°
2026-05-06 22:29 47.42438 -61.77490 32 ft 1 kts 327°
2026-05-06 22:29 47.42440 -61.77476 32 ft 2 kts 129°
2026-05-06 22:29 47.42450 -61.77441 30 ft 9 kts 59°
2026-05-06 22:29 47.42493 -61.77322 24 ft 15 kts 46°
2026-05-06 22:30 47.42571 -61.77283 28 ft 13 kts 313°
2026-05-06 22:30 47.42633 -61.77374 28 ft 12 kts 316°
2026-05-06 22:30 47.42697 -61.77466 28 ft 12 kts 319°
2026-05-06 22:30 47.42731 -61.77441 28 ft 5 kts 65°
2026-05-06 22:31 47.42753 -61.77380 27 ft 8 kts 53°
2026-05-06 22:31 47.42782 -61.77330 27 ft 3 kts 13°
2026-05-06 22:31 47.42791 -61.77350 26 ft 3 kts 235°
2026-05-06 22:31 47.42790 -61.77352 26 ft 0 kts 230°
2026-05-06 22:32 47.42786 -61.77360 26 ft 14 kts 230°
2026-05-06 22:33 47.42522 -61.77862 28 ft 105 kts 230°
2026-05-06 22:33 47.42048 -61.78862 490 ft 131 kts 233°
2026-05-06 22:33 47.41466 -61.80085 899 ft 152 kts 209°
2026-05-06 22:33 47.40506 -61.80569 2019 ft 146 kts 207°
2026-05-06 22:34 47.39532 -61.81307 2959 ft 167 kts 212°
2026-05-06 22:34 47.38436 -61.82154 3979 ft 188 kts 211°
2026-05-06 22:34 47.37228 -61.83081 5069 ft 204 kts 211°
2026-05-06 22:34 47.35922 -61.84060 6194 ft 217 kts 210°
2026-05-06 22:35 47.34553 -61.85068 7372 ft 224 kts 210°
2026-05-06 22:35 47.33128 -61.86086 8531 ft 231 kts 210°
2026-05-06 22:35 47.31651 -61.87115 9698 ft 238 kts 211°
2026-05-06 22:35 47.30136 -61.88171 10766 ft 244 kts 210°
2026-05-06 22:36 47.28582 -61.89236 11763 ft 249 kts 210°
2026-05-06 22:36 47.26996 -61.90322 12716 ft 254 kts 210°
2026-05-06 22:36 47.25377 -61.91428 13644 ft 259 kts 210°
2026-05-06 22:36 47.23734 -61.92557 14458 ft 262 kts 209°
2026-05-06 22:37 47.22072 -61.93691 15210 ft 267 kts 209°
2026-05-06 22:37 47.20360 -61.94864 15550 ft 283 kts 208°
2026-05-06 22:37 47.18492 -61.96126 15758 ft 300 kts 208°
2026-05-06 22:37 47.16553 -61.97442 15974 ft 313 kts 208°
2026-05-06 22:38 47.14556 -61.98785 16443 ft 318 kts 207°
2026-05-06 22:38 47.12562 -62.00102 16984 ft 320 kts 207°
2026-05-06 22:38 47.10528 -62.01455 17495 ft 323 kts 207°
2026-05-06 22:38 47.08479 -62.02827 18034 ft 324 kts 207°
2026-05-06 22:39 47.06423 -62.04219 18518 ft 326 kts 207°
2026-05-06 22:39 47.04356 -62.05621 18947 ft 329 kts 207°
2026-05-06 22:39 47.02272 -62.07028 19367 ft 331 kts 207°
2026-05-06 22:39 47.00170 -62.08445 19784 ft 334 kts 207°
2026-05-06 22:40 46.98052 -62.09865 20194 ft 336 kts 207°
2026-05-06 22:40 46.95931 -62.11321 20595 ft 338 kts 208°
2026-05-06 22:40 46.93788 -62.12773 20986 ft 341 kts 207°
2026-05-06 22:40 46.91630 -62.14240 21368 ft 343 kts 208°
2026-05-06 22:41 46.87262 -62.17208 21898 ft 351 kts 208°
2026-05-06 22:41 46.85080 -62.18669 21961 ft 341 kts 207°
2026-05-06 22:41 46.82921 -62.20127 21979 ft 342 kts 208°
2026-05-06 22:42 46.80758 -62.21582 21977 ft 342 kts 207°
2026-05-06 22:42 46.78590 -62.23029 21979 ft 343 kts 208°
2026-05-06 22:42 46.76420 -62.24488 21979 ft 344 kts 207°
2026-05-06 22:42 46.74245 -62.25930 21980 ft 344 kts 208°
2026-05-06 22:43 46.72075 -62.27390 21965 ft 344 kts 207°
2026-05-06 22:43 46.69884 -62.28834 21976 ft 347 kts 207°
2026-05-06 22:43 46.67721 -62.30270 21981 ft 346 kts 208°
2026-05-06 22:43 46.65530 -62.31732 21984 ft 346 kts 207°
2026-05-06 22:44 46.63340 -62.33190 21980 ft 347 kts 208°
2026-05-06 22:44 46.61143 -62.34653 21981 ft 347 kts 207°
2026-05-06 22:44 46.58945 -62.36107 21985 ft 347 kts 208°
2026-05-06 22:44 46.56753 -62.37567 21983 ft 347 kts 207°
2026-05-06 22:45 46.54557 -62.39020 21985 ft 348 kts 207°
2026-05-06 22:45 46.52350 -62.40478 21975 ft 349 kts 207°
2026-05-06 22:45 46.50133 -62.41945 21982 ft 350 kts 207°
2026-05-06 22:45 46.47916 -62.43415 21985 ft 350 kts 207°
2026-05-06 22:46 46.45702 -62.44872 21986 ft 350 kts 207°
2026-05-06 22:46 46.43483 -62.46335 21992 ft 350 kts 207°
2026-05-06 22:46 46.41270 -62.47800 21993 ft 350 kts 207°
2026-05-06 22:46 46.39056 -62.49262 21993 ft 350 kts 207°
2026-05-06 22:47 46.36840 -62.50731 21994 ft 352 kts 207°
2026-05-06 22:47 46.34610 -62.52195 22003 ft 352 kts 207°
2026-05-06 22:47 46.32380 -62.53654 21995 ft 353 kts 207°
2026-05-06 22:47 46.30139 -62.55117 22000 ft 353 kts 207°
2026-05-06 22:48 46.27898 -62.56580 21999 ft 353 kts 207°
2026-05-06 22:48 46.25661 -62.58040 21998 ft 353 kts 207°
2026-05-06 22:48 46.23427 -62.59516 22000 ft 353 kts 207°
2026-05-06 22:48 46.21189 -62.60983 21995 ft 354 kts 207°
2026-05-06 22:49 46.18951 -62.62449 21994 ft 353 kts 207°
2026-05-06 22:49 46.16712 -62.63910 21996 ft 353 kts 207°
2026-05-06 22:49 46.14471 -62.65371 21987 ft 354 kts 207°
2026-05-06 22:49 46.12225 -62.66836 21993 ft 355 kts 207°
2026-05-06 22:50 46.09974 -62.68306 22000 ft 355 kts 207°
2026-05-06 22:50 46.07729 -62.69769 21996 ft 354 kts 207°
2026-05-06 22:50 46.05484 -62.71233 21995 ft 354 kts 207°
2026-05-06 22:50 46.03242 -62.72697 21997 ft 354 kts 207°
2026-05-06 22:51 46.00994 -62.74163 22003 ft 355 kts 207°
2026-05-06 22:51 45.98745 -62.75630 22003 ft 355 kts 207°
2026-05-06 22:51 45.96500 -62.77097 22004 ft 354 kts 207°
2026-05-06 22:51 45.94256 -62.78559 22002 ft 354 kts 207°
2026-05-06 22:52 45.92011 -62.80025 22002 ft 354 kts 207°
2026-05-06 22:52 45.89796 -62.81470 22009 ft 354 kts 207°
2026-05-06 22:52 45.87565 -62.82923 21728 ft 347 kts 207°
2026-05-06 22:52 45.85319 -62.84380 21019 ft 363 kts 207°
2026-05-06 22:53 45.82976 -62.85876 21045 ft 373 kts 206°
2026-05-06 22:53 45.80832 -62.87226 19991 ft 311 kts 206°
2026-05-06 22:53 45.78929 -62.88449 18288 ft 290 kts 207°
2026-05-06 22:53 45.77108 -62.89622 16566 ft 296 kts 207°
2026-05-06 22:54 45.75164 -62.90886 15835 ft 308 kts 207°
2026-05-06 22:54 45.73241 -62.92133 15325 ft 298 kts 207°
2026-05-06 22:54 45.71385 -62.93328 14909 ft 287 kts 207°
2026-05-06 22:54 45.69587 -62.94470 14515 ft 278 kts 207°
2026-05-06 22:55 45.67845 -62.95591 14130 ft 272 kts 208°
2026-05-06 22:55 45.66133 -62.96696 13748 ft 269 kts 208°
2026-05-06 22:55 45.64442 -62.97786 13316 ft 265 kts 208°
2026-05-06 22:55 45.62767 -62.98873 12891 ft 262 kts 208°
2026-05-06 22:56 45.61113 -62.99947 12486 ft 260 kts 208°
2026-05-06 22:56 45.59473 -63.01002 12079 ft 257 kts 208°
2026-05-06 22:56 45.57850 -63.02045 11664 ft 255 kts 208°
2026-05-06 22:56 45.56237 -63.03074 11257 ft 253 kts 207°
2026-05-06 22:57 45.54641 -63.04077 10948 ft 250 kts 207°
2026-05-06 22:57 45.53049 -63.05075 10671 ft 248 kts 207°
2026-05-06 22:57 45.51480 -63.06069 10390 ft 247 kts 208°
2026-05-06 22:57 45.49916 -63.07061 10101 ft 245 kts 207°
2026-05-06 22:58 45.48359 -63.08055 9791 ft 244 kts 207°
2026-05-06 22:58 45.46818 -63.09031 9474 ft 242 kts 207°
2026-05-06 22:58 45.45276 -63.10011 9177 ft 242 kts 207°
2026-05-06 22:58 45.43750 -63.10989 8860 ft 240 kts 207°
2026-05-06 22:59 45.42231 -63.11963 8559 ft 238 kts 207°
2026-05-06 22:59 45.40723 -63.12916 8244 ft 236 kts 207°
2026-05-06 22:59 45.39226 -63.13859 7959 ft 234 kts 207°
2026-05-06 22:59 45.37733 -63.14813 7665 ft 236 kts 206°
2026-05-06 23:00 45.36239 -63.15757 7376 ft 234 kts 205°
2026-05-06 23:00 45.34753 -63.16695 7090 ft 233 kts 206°
2026-05-06 23:00 45.33273 -63.17627 6792 ft 232 kts 205°
2026-05-06 23:00 45.31803 -63.18553 6529 ft 229 kts 205°
2026-05-06 23:01 45.30352 -63.19473 6377 ft 229 kts 205°
2026-05-06 23:01 45.28915 -63.20369 6204 ft 228 kts 205°
2026-05-06 23:01 45.27468 -63.21272 6025 ft 226 kts 205°
2026-05-06 23:01 45.26029 -63.22164 5840 ft 225 kts 205°
2026-05-06 23:02 45.24596 -63.23054 5680 ft 225 kts 205°
2026-05-06 23:02 45.23145 -63.23958 5516 ft 225 kts 205°
2026-05-06 23:02 45.21724 -63.24845 5349 ft 227 kts 204°
2026-05-06 23:02 45.20285 -63.25758 5199 ft 226 kts 204°
2026-05-06 23:03 45.18853 -63.26670 5034 ft 226 kts 204°
2026-05-06 23:03 45.17425 -63.27569 4867 ft 223 kts 204°
2026-05-06 23:03 45.16006 -63.28453 4708 ft 222 kts 204°
2026-05-06 23:03 45.14592 -63.29344 4532 ft 221 kts 205°
2026-05-06 23:04 45.13219 -63.30207 4330 ft 211 kts 205°
2026-05-06 23:04 45.11910 -63.31039 4156 ft 202 kts 205°
2026-05-06 23:04 45.10648 -63.31834 3973 ft 195 kts 205°
2026-05-06 23:04 45.09421 -63.32597 3797 ft 190 kts 205°
2026-05-06 23:05 45.08227 -63.33345 3633 ft 186 kts 205°
2026-05-06 23:05 45.07072 -63.34065 3516 ft 174 kts 205°
2026-05-06 23:05 45.06010 -63.34728 3442 ft 163 kts 205°
2026-05-06 23:05 45.04971 -63.35382 3324 ft 164 kts 206°
2026-05-06 23:06 45.03948 -63.36092 3162 ft 164 kts 208°
2026-05-06 23:06 45.02945 -63.36846 3047 ft 163 kts 208°
2026-05-06 23:06 45.01966 -63.37636 3030 ft 161 kts 211°
2026-05-06 23:06 45.01006 -63.38493 3026 ft 163 kts 213°
2026-05-06 23:07 45.00091 -63.39365 2981 ft 156 kts 214°
2026-05-06 23:07 44.99251 -63.40187 2979 ft 141 kts 214°
2026-05-06 23:07 44.98426 -63.40984 2751 ft 143 kts 214°
2026-05-06 23:07 44.97612 -63.41786 2562 ft 143 kts 214°
2026-05-06 23:08 44.96797 -63.42592 2372 ft 143 kts 214°
2026-05-06 23:08 44.95990 -63.43390 2147 ft 135 kts 215°
2026-05-06 23:08 44.95294 -63.44081 1995 ft 109 kts 215°
2026-05-06 23:08 44.94734 -63.44638 1877 ft 88 kts 215°
2026-05-06 23:09 44.94284 -63.45090 1747 ft 73 kts 216°
2026-05-06 23:09 44.93875 -63.45502 1671 ft 74 kts 214°
2026-05-06 23:09 44.93446 -63.45922 1556 ft 74 kts 213°
2026-05-06 23:09 44.93030 -63.46329 1444 ft 74 kts 215°
2026-05-06 23:10 44.92582 -63.46781 1355 ft 85 kts 211°
2026-05-06 23:10 44.92071 -63.47276 1283 ft 91 kts 213°
2026-05-06 23:10 44.91538 -63.47813 1140 ft 95 kts 215°
2026-05-06 23:10 44.91005 -63.48327 1074 ft 89 kts 219°
2026-05-06 23:11 44.90484 -63.48854 902 ft 93 kts 218°
2026-05-06 23:11 44.90133 -63.49206 815 ft 94 kts 210°
2026-05-06 23:11 44.89573 -63.49746 656 ft 101 kts 221°
2026-05-06 23:11 44.89008 -63.50306 538 ft 98 kts 220°
2026-05-06 23:12 44.88476 -63.50833 454 ft 86 kts 220°
2026-05-06 23:12 44.88114 -63.51201 448 ft 40 kts 214°
2026-05-06 23:12 44.87962 -63.51381 450 ft 12 kts 226°
2026-05-06 23:12 44.87977 -63.51343 450 ft 21 kts 35°
2026-05-06 23:13 44.88134 -63.51185 448 ft 29 kts 35°
2026-05-06 23:13 44.88286 -63.51038 449 ft 21 kts 20°
2026-05-06 23:13 44.88386 -63.51154 451 ft 19 kts 305°
2026-05-06 23:13 44.88379 -63.51264 451 ft 12 kts 228°
2026-05-06 23:14 44.88365 -63.51337 451 ft 6 kts 308°
2026-05-06 23:14 44.88399 -63.51366 451 ft 6 kts 26°
2026-05-06 23:14 44.88410 -63.51341 451 ft 0 kts 57°